Regional Weather Roundup
Issued by NWS Cleveland, OH

Home | Current Version | Previous Version | Text Only | Print | Product List | Glossary On
Versions: 1 2 3 4 5 6 7 8 9 10 11 12 13 14 15 16 17 18 19 20 21 22 23 24 25 26 27 28 29 30 31 32 33 34 35 36 37 38 39 40 41 42 43 44 45 46 47 48 49 50
000
ASUS41 KCLE 281010
RWRCLE
OHIO REGIONAL WEATHER ROUNDUP
NATIONAL WEATHER SERVICE WILMINGTON, OH
600 AM EDT SAT MAR 28 2015

NOTE: "FAIR" INDICATES FEW OR NO CLOUDS BELOW 12,000 FEET WITH NO
SIGNIFICANT WEATHER AND/OR OBSTRUCTIONS TO VISIBILITY.

OHZ001>008-015>018-024>027-034-035-043-044-281100-
   NORTHWEST OHIO

CITY           SKY/WX    TMP DP  RH WIND       PRES   REMARKS
DEFIANCE       CLEAR     17   7  64 N6        30.21R WCI   9
FINDLAY        CLEAR     17   6  62 NW5       30.17R WCI  10
TOLEDO EXPRESS CLEAR     15   6  67 N6        30.19R WCI   6
TOLEDO EXEC    CLOUDY    19   5  54 N12       30.20R WCI   7
LIMA           CLOUDY    20   7  57 N10       30.16R WCI   9
$$

OHZ009>014-019>023-028>033-038-089-281100-
   NORTHEAST OHIO

CITY           SKY/WX    TMP DP  RH WIND       PRES   REMARKS
CLE-HOPKINS    MOCLDY    18   8  65 N9        30.14R WCI   7
CLE-LAKEFRONT  PTCLDY    19  10  68 N9        30.13R WCI   8
CUY CO. ARPT   NOT AVBL
LORAIN-ELYRIA  CLOUDY    18   7  62 N13       30.13R WCI   5
ASHTABULA      CLEAR     14   6  70 N6        30.07R WCI   5
AKRON-CANTON   FLURRIES  14   5  67 N8        30.07R WCI   3
WOOSTER        CLEAR     15   7  70 N9        30.10R WCI   3
MANSFIELD      CLEAR     10   6  84 NW7       30.09R WCI  -1
YOUNGSTOWN     LGT SNOW  15   9  76 NW10      30.03R WCI   2
$$

OHZ042-051>053-060>062-070>072-077>081-281100-
  SOUTHWEST OHIO

CITY           SKY/WX    TMP DP  RH WIND       PRES   REMARKS
CINC-COVINGTON CLEAR     20  13  74 NW7       30.15R WCI  11
CINC-LUNKEN    CLEAR     21  14  74 N8        30.18R WCI  11
HAMILTON       CLEAR     21  14  74 N6        30.18R WCI  13
DAYTON         CLEAR     19  13  77 N5        30.15R WCI  12
WRIGHT-PAT AFB CLEAR     19  13  80 NE5       30.15R WCI  12
DAYTON GENERAL CLEAR     19  15  84 N6        30.13R WCI  11
WILMINGTON     CLEAR     19  14  81 N7        30.13R WCI  10
$$

OHZ036-037-039>041-045>050-054>059-063>069-073>076-082>088-281100-
  CENTRAL AND SOUTHEAST OHIO

CITY           SKY/WX    TMP DP  RH WIND       PRES   REMARKS
COLUMBUS       CLOUDY    19  10  68 N10       30.14R WCI   7
OSU AIRPORT    CLOUDY    18   8  65 N9        30.14R WCI   7
BOLTON FIELD   CLOUDY   N/A N/A N/A N14       30.14R
RICKENBACK AFB CLOUDY    20  11  67 N13       30.15R WCI   8
NEWARK         MOCLDY    17  10  74 NW7       30.13R WCI   8
MARION         CLEAR     15   7  70 N9        30.14R WCI   3
LANCASTER      PTCLDY    20  12  71 N12       30.14R WCI   8
ZANESVILLE     CLEAR     16   6  65 NW9       30.11R WCI   4
NEW PHILLY     PTCLDY    17   5  59 NW8       30.10R WCI   7
$$



USA.gov is the U.S. government's official web portal to all federal, state and local government web resources and services.